Total_Precipitation_Accumulation
0.20 0.20 0.20 0.19 0.15 0.11 0.12 0.14 0.31 0.54 0.74 0.99 1.13 1.21 1.28 1.44 1.37 1.17 0.98 0.82 0.68 0.56 0.53 0.48 0.40 0.35 0.32 0.33 0.32 0.29 0.27 0.26 0.26 0.22 0.20 0.19 0.18 0.16 0.15 0.14 0.12 0.09 0.07 0.05
0.19 0.18 0.22 0.22 0.20 0.19 0.23 0.29 0.45 0.67 0.97 1.28 1.33 1.30 1.32 1.41 1.35 1.16 0.95 0.81 0.73 0.68 0.65 0.56 0.45 0.37 0.34 0.31 0.29 0.27 0.25 0.21 0.19 0.18 0.17 0.15 0.13 0.11 0.09 0.07 0.06 0.04 0.03 0.02
0.22 0.20 0.27 0.40 0.33 0.32 0.36 0.41 0.54 0.77 0.97 1.16 1.25 1.24 1.29 1.36 1.40 1.28 1.07 0.95 0.92 0.92 0.87 0.75 0.61 0.50 0.44 0.40 0.34 0.29 0.28 0.26 0.24 0.20 0.16 0.12 0.09 0.07 0.05 0.04 0.03 0.03 0.02 0.02
0.18 0.27 0.46 0.50 0.28 0.32 0.37 0.40 0.49 0.57 0.74 0.91 1.02 1.07 1.19 1.30 1.34 1.30 1.23 1.20 1.21 1.15 1.02 0.88 0.75 0.62 0.53 0.46 0.41 0.36 0.33 0.28 0.21 0.15 0.10 0.08 0.07 0.06 0.05 0.04 0.03 0.03 0.03 0.03
0.19 0.33 0.50 0.46 0.27 0.22 0.37 0.44 0.44 0.49 0.52 0.57 0.60 0.68 0.97 1.13 1.15 1.17 1.20 1.18 1.11 1.04 0.96 0.87 0.72 0.60 0.50 0.43 0.36 0.30 0.24 0.18 0.12 0.09 0.08 0.07 0.07 0.06 0.06 0.05 0.04 0.04 0.03 0.04
0.19 0.30 0.47 0.45 0.20 0.12 0.29 0.56 0.51 0.47 0.47 0.51 0.57 0.62 0.70 0.78 0.79 0.85 0.89 0.90 0.89 0.85 0.79 0.71 0.60 0.47 0.38 0.31 0.25 0.19 0.12 0.09 0.06 0.05 0.05 0.05 0.05 0.05 0.04 0.04 0.05 0.04 0.04 0.05
0.24 0.35 0.42 0.18 0.09 0.20 0.50 0.69 0.60 0.55 0.52 0.55 0.57 0.52 0.43 0.46 0.54 0.62 0.69 0.73 0.72 0.70 0.66 0.54 0.40 0.31 0.25 0.20 0.16 0.10 0.06 0.05 0.05 0.04 0.04 0.04 0.05 0.05 0.06 0.07 0.07 0.07 0.07 0.08
0.30 0.40 0.43 0.14 0.11 0.29 0.42 0.41 0.46 0.46 0.45 0.42 0.35 0.29 0.30 0.33 0.37 0.40 0.48 0.57 0.56 0.49 0.41 0.32 0.25 0.21 0.19 0.14 0.10 0.07 0.06 0.07 0.06 0.05 0.04 0.04 0.06 0.07 0.07 0.08 0.09 0.09 0.10 0.10
0.27 0.37 0.30 0.12 0.13 0.18 0.20 0.28 0.29 0.29 0.29 0.24 0.19 0.20 0.21 0.24 0.29 0.32 0.34 0.38 0.37 0.32 0.26 0.23 0.21 0.18 0.15 0.11 0.09 0.08 0.09 0.08 0.06 0.04 0.04 0.04 0.05 0.06 0.06 0.08 0.08 0.08 0.08 0.09
0.09 0.19 0.15 0.10 0.08 0.10 0.13 0.18 0.19 0.22 0.28 0.22 0.16 0.15 0.16 0.20 0.23 0.25 0.25 0.23 0.23 0.21 0.19 0.19 0.16 0.14 0.12 0.09 0.08 0.10 0.10 0.08 0.07 0.06 0.07 0.05 0.05 0.03 0.04 0.06 0.06 0.07 0.07 0.08
0.06 0.11 0.12 0.13 0.09 0.06 0.08 0.10 0.13 0.21 0.30 0.27 0.19 0.17 0.15 0.16 0.19 0.20 0.21 0.21 0.21 0.19 0.16 0.12 0.10 0.09 0.07 0.07 0.09 0.11 0.10 0.07 0.08 0.08 0.08 0.08 0.07 0.04 0.03 0.03 0.02 0.02 0.04 0.04
0.11 0.11 0.14 0.15 0.10 0.07 0.12 0.17 0.20 0.26 0.34 0.27 0.21 0.18 0.14 0.15 0.15 0.16 0.16 0.17 0.17 0.15 0.11 0.08 0.07 0.06 0.06 0.05 0.06 0.09 0.09 0.07 0.06 0.07 0.07 0.07 0.11 0.10 0.04 0.01 0.01 0.01 0.01 0.02
0.06 0.05 0.08 0.10 0.11 0.15 0.21 0.23 0.28 0.34 0.29 0.19 0.19 0.20 0.18 0.17 0.14 0.12 0.10 0.11 0.11 0.09 0.07 0.06 0.06 0.06 0.05 0.03 0.04 0.06 0.06 0.05 0.04 0.04 0.06 0.07 0.08 0.12 0.16 0.08 0.02 0.01 0.01 0.02
0.13 0.15 0.20 0.24 0.26 0.25 0.24 0.21 0.23 0.24 0.21 0.16 0.16 0.19 0.17 0.13 0.10 0.09 0.09 0.08 0.07 0.06 0.05 0.05 0.05 0.04 0.03 0.02 0.03 0.04 0.04 0.02 0.02 0.04 0.05 0.04 0.05 0.07 0.11 0.16 0.15 0.13 0.06 0.03
0.21 0.23 0.26 0.24 0.22 0.21 0.19 0.16 0.17 0.18 0.16 0.17 0.15 0.14 0.12 0.10 0.09 0.07 0.05 0.03 0.03 0.04 0.04 0.03 0.03 0.02 0.02 0.02 0.01 0.02 0.02 0.04 0.02 0.02 0.02 0.02 0.03 0.04 0.06 0.08 0.14 0.17 0.15 0.09
0.16 0.15 0.14 0.14 0.15 0.16 0.16 0.16 0.17 0.17 0.16 0.14 0.12 0.09 0.07 0.06 0.04 0.02 0.02 0.02 0.04 0.04 0.03 0.03 0.03 0.02 0.01 0.01 0.01 0.02 0.02 0.02 0.01 0.01 0.01 0.01 0.01 0.02 0.04 0.06 0.10 0.13 0.13 0.10
0.11 0.11 0.11 0.10 0.11 0.12 0.12 0.12 0.11 0.10 0.10 0.09 0.07 0.03 0.02 0.02 0.02 0.01 0.02 0.02 0.03 0.03 0.02 0.01 0.01 0.01 0.00 0.00 0.00 0.00 0.01 0.01 0.01 0.00 0.00 0.00 0.01 0.01 0.02 0.04 0.07 0.09 0.07 0.06
0.12 0.10 0.09 0.07 0.07 0.06 0.07 0.07 0.06 0.05 0.05 0.03 0.02 0.01 0.01 0.01 0.01 0.01 0.01 0.01 0.01 0.01 0.00 0.00 0.00 0.00 0.00 0.00 0.00 0.00 0.00 0.00 0.00 0.00 0.00 0.00 0.00 0.00 0.01 0.02 0.04 0.05 0.06 0.06
0.10 0.06 0.04 0.03 0.03 0.03 0.03 0.04 0.03 0.02 0.01 0.01 0.01 0.01 0.01 0.01 0.00 0.00 0.00 0.00 0.00 0.00 0.00 0.00 0.00 0.00 0.00 0.00 0.00 0.00 0.00 0.00 0.00 0.00 0.00 0.00 0.00 0.00 0.00 0.01 0.02 0.03 0.04 0.05
0.06 0.02 0.01 0.01 0.01 0.02 0.02 0.01 0.01 0.01 0.00 0.00 0.01 0.01 0.00 0.00 0.00 0.00 0.00 0.00 0.00 0.00 0.00 0.00 0.00 0.00 0.00 0.00 0.00 0.00 0.00 0.00 0.00 0.00 0.00 0.00 0.00 0.00 0.00 0.00 0.01 0.02 0.03 0.05
0.02 0.01 0.01 0.01 0.01 0.01 0.00 0.00 0.00 0.00 0.00 0.00 0.00 0.00 0.00 0.00 0.00 0.00 0.00 0.00 0.00 0.00 0.00 0.00 0.00 0.00 0.00 0.00 0.00 0.00 0.00 0.00 0.00 0.00 0.00 0.00 0.00 0.00 0.01 0.01 0.01 0.01 0.02 0.03
0.02 0.01 0.01 0.00 0.00 0.00 0.00 0.00 0.00 0.00 0.00 0.00 0.00 0.00 0.00 0.00 0.00 0.00 0.00 0.00 0.00 0.00 0.00 0.00 0.00 0.00 0.00 0.00 0.00 0.00 0.00 0.00 0.00 0.00 0.00 0.00 0.00 0.00 0.00 0.00 0.00 0.01 0.01 0.02
0.03 0.01 0.01 0.00 0.00 0.00 0.00 0.00 0.00 0.00 0.00 0.00 0.00 0.00 0.00 0.00 0.00 0.00 0.00 0.00 0.00 0.00 0.00 0.00 0.00 0.00 0.00 0.00 0.00 0.00 0.00 0.00 0.00 0.00 0.00 0.00 0.00 0.00 0.00 0.00 0.00 0.00 0.00 0.01
0.04 0.02 0.01 0.01 0.00 0.00 0.00 0.00 0.00 0.00 0.00 0.00 0.00 0.00 0.00 0.00 0.00 0.00 0.00 0.00 0.00 0.00 0.00 0.00 0.00 0.00 0.00 0.00 0.00 0.00 0.00 0.00 0.00 0.00 0.00 0.00 0.00 0.00 0.00 0.00 0.00 0.00 0.00 0.00
0.05 0.02 0.01 0.01 0.01 0.00 0.00 0.00 0.00 0.00 0.00 0.00 0.00 0.00 0.00 0.00 0.00 0.00 0.00 0.00 0.00 0.00 0.00 0.00 0.00 0.00 0.00 0.00 0.00 0.00 0.00 0.00 0.00 0.00 0.00 0.00 0.00 0.00 0.00 0.00 0.00 0.00 0.00 0.00
0.10 0.05 0.03 0.02 0.01 0.00 0.00 0.00 0.00 0.00 0.00 0.00 0.00 0.00 0.00 0.00 0.00 0.00 0.00 0.00 0.00 0.00 0.00 0.00 0.00 0.00 0.00 0.00 0.00 0.00 0.00 0.00 0.00 0.00 0.00 0.00 0.00 0.00 0.00 0.00 0.00 0.00 0.00 0.00
0.24 0.15 0.10 0.07 0.03 0.00 0.00 0.00 0.00 0.00 0.00 0.00 0.00 0.00 0.00 0.00 0.00 0.00 0.00 0.00 0.00 0.00 0.00 0.00 0.00 0.00 0.00 0.00 0.00 0.00 0.00 0.00 0.00 0.00 0.00 0.00 0.00 0.00 0.00 0.00 0.00 0.00 0.00 0.00